LEMUR-2-FURIAUS

Last updated on Wed Feb 14 2018 16:20:51 GMT+0000 (Coordinated Universal Time)

1 42840U 17042R 18045.38098177 .00000274 00000-0 32791-4 0 9992 2 42840 97.6070 312.4907 0011727 243.8272 116.1741 14.91474368 32048
UTC large
Height (km)
Speed (km/s)
/
Latitude / Longitude
Inclination (degrees)
Orbital Period (minutes)
Azimuth
Elevation
Range (km)
Doppler Factor

Next 0 passes for location: London (51.5072 / 0.1276)

Sorry there are no passes over London.